Content
SEND FEEDBACK

Daily
Averages
Monthly
Summary
United States of America

MANGILAO, GUAM


Home > North America > United States > Guam
Elevation: 60 feet     Latitude: 13 27N     Longitude: 144 49E

WEATHER
 
SELECT A DAY
Number of Records: 350,199;   Date Range: 1/1/95 - 9/29/14
 
SHARE

PRINT THIS DATA

[ ← Previous Day ]
WEATHER ALMANAC - JANUARY 17, 2014
[ Next Day → ]
[ °C ]   °F
Weather ElementAverageHighLow
Temperature77.2 °F81 °F (1:58 pm)71.6 °F (1:03 pm)
Dewpoint74.8 °F77 °F (9:47 am)69.8 °F (1:03 pm)
Humidity92.7 %100 % (9:47 am)76 % (1:58 pm)
Barometer29.83 in29.90 in (9:42 am)29.77 in (1:58 pm)
Wind Speed9.2 mph19.6 mph (2:38 pm)
Wind Gust25.3 mph (12:43 pm)
Weather ElementAverage
Visibility9.3 mi
Wind DirectionE (85.8 °)

Weather ElementTotal
Precipitation0.07 in
Cooling Degree Days11.3 (Base 65)
Growing Degree Days26.3 (Base 50)
Averaged from 65 records on January 17, 2014
WEATHER CONDITIONS BREAKOUT
WIND DIRECTION BREAKOUT
WEATHER BY HOUR - JANUARY 17, 2014
[ °C ]   °F
Local TimeTemperatureDewpointHumidityBarometerVisibilityWind DirectionWind SpeedGust SpeedPrecipitationEventsConditions
1:58 AM76.6 °F75.2 °F95 %29.82 in10.0 miNNE (30°)1.2 mphPartly Cloudy
2:58 AM75.7 °F75.2 °F98 %29.81 in10.0 miCalmClear
3:58 AM76.5 °F74.8 °F95 %29.81 in10.0 miENE (60°)6.9 mphScattered Clouds
4:58 AM76.5 °F74.8 °F95 %29.81 in10.0 miENE (60°)5.8 mphScattered Clouds
5:03 AM77.0 °F75.2 °F94 %29.84 in10.0 miEast (80°)12.7 mphMostly Cloudy
5:08 AM77.0 °F75.2 °F94 %29.84 in10.0 miNE (50°)9.2 mphMostly Cloudy
5:18 AM77.0 °F75.2 °F94 %29.84 in10.0 miENE (60°)9.2 mphMostly Cloudy
5:28 AM77.0 °F75.2 °F94 %29.84 in10.0 miENE (60°)8.1 mphMostly Cloudy
5:48 AM77.0 °F75.2 °F94 %29.85 in10.0 miENE (70°)10.4 mphScattered Clouds
5:58 AM76.1 °F74.8 °F96 %29.82 in10.0 miENE (60°)8.1 mphScattered Clouds
6:58 AM75.6 °F74.3 °F96 %29.83 in10.0 miENE (60°)6.9 mphClear
7:58 AM78.4 °F75.0 °F89 %29.86 in10.0 miENE (60°)6.9 mphClear
8:58 AM80.2 °F73.9 °F81 %29.87 in10.0 miENE (60°)11.5 mphClear
9:42 AM78.8 °F75.2 °F89 %29.90 in4.0 miEast (80°)15.0 mphRainHeavy Rain
9:47 AM77.0 °F77.0 °F100 %29.90 in1.8 miENE (70°)12.7 mphRainRain
9:52 AM75.2 °F75.2 °F100 %29.90 in2.0 miENE (60°)13.8 mphRainLight Rain
9:57 AM75.2 °F75.2 °F100 %29.90 in6.0 miENE (70°)15.0 mphRainLight Rain
9:58 AM75.7 °F75.4 °F99 %29.87 in6.0 miENE (70°)13.8 mph0.06 inRainLight Rain
10:12 AM77.0 °F73.4 °F89 %29.90 in8.0 miENE (60°)6.9 mphMostly Cloudy
10:17 AM77.0 °F73.4 °F89 %29.90 in10.0 miENE (60°)5.8 mphMostly Cloudy
10:58 AM80.6 °F75.7 °F85 %29.86 in10.0 miEast (90°)8.1 mph0.01 inMostly Cloudy
11:38 AM80.6 °F75.2 °F84 %29.86 in10.0 miENE (70°)12.7 mphMostly Cloudy
11:58 AM76.6 °F75.6 °F96 %29.83 in10.0 miEast (100°)16.1 mph19.6 mphMostly Cloudy
12:13 PM75.2 °F71.6 °F89 %29.85 in10.0 miESE (120°)8.1 mphMostly Cloudy
12:43 PM73.4 °F71.6 °F94 %29.84 in10.0 miESE (110°)15.0 mph25.3 mphOvercast
12:53 PM75.2 °F73.4 °F94 %29.83 in10.0 miESE (110°)12.7 mph23.0 mphOvercast
12:58 PM73.8 °F72.3 °F95 %29.81 in10.0 miESE (110°)11.5 mph20.7 mphOvercast
1:03 PM71.6 °F69.8 °F94 %29.83 in10.0 miESE (120°)16.1 mph19.6 mphOvercast
1:18 PM77.0 °F73.4 °F89 %29.82 in10.0 miESE (110°)6.9 mphOvercast
1:58 PM81.0 °F72.9 °F76 %29.77 in10.0 miEast (100°)8.1 mphScattered Clouds
2:38 PM80.6 °F77.0 °F89 %29.80 in10.0 miEast (80°)19.6 mph23.0 mphMostly Cloudy
2:43 PM78.8 °F73.4 °F83 %29.80 in10.0 miEast (100°)17.3 mph23.0 mphMostly Cloudy
2:53 PM77.0 °F75.2 °F94 %29.80 in10.0 miESE (110°)11.5 mphMostly Cloudy
2:58 PM77.5 °F75.0 °F92 %29.77 in10.0 miESE (110°)9.2 mphMostly Cloudy
3:18 PM78.8 °F75.2 °F89 %29.80 in10.0 miEast (90°)10.4 mphOvercast
3:23 PM78.8 °F75.2 °F89 %29.80 in10.0 miEast (80°)9.2 mph16.1 mphOvercast
3:27 PM78.8 °F75.2 °F89 %29.80 in6.0 miEast (90°)8.1 mph16.1 mphLight Drizzle
3:32 PM77.0 °F75.2 °F94 %29.80 in6.0 miEast (90°)6.9 mphLight Drizzle
3:36 PM77.0 °F77.0 °F100 %29.80 in7.0 miENE (70°)4.6 mphOvercast
3:41 PM77.0 °F75.2 °F94 %29.80 in10.0 miEast (90°)8.1 mphMostly Cloudy
3:58 PM79.3 °F75.0 °F87 %29.77 in10.0 miEast (90°)8.1 mph0.00 inScattered Clouds
4:28 PM77.0 °F75.2 °F94 %29.81 in10.0 miESE (120°)10.4 mph21.9 mphMostly Cloudy
4:33 PM77.0 °F75.2 °F94 %29.81 in10.0 miESE (120°)8.1 mphMostly Cloudy
4:53 PM77.0 °F75.2 °F94 %29.81 in10.0 miEast (100°)2.3 mphMostly Cloudy
4:58 PM76.1 °F75.2 °F97 %29.78 in10.0 miSE (140°)5.8 mphMostly Cloudy
5:15 PM77.0 °F75.2 °F94 %29.82 in10.0 miESE (120°)5.8 mphRainLight Rain
5:20 PM77.0 °F75.2 °F94 %29.82 in10.0 miESE (120°)5.8 mphMostly Cloudy
5:30 PM77.0 °F77.0 °F100 %29.82 in10.0 miSE (130°)5.8 mphMostly Cloudy
5:35 PM77.0 °F75.2 °F94 %29.82 in10.0 miESE (120°)4.6 mphMostly Cloudy
5:40 PM77.0 °F77.0 °F100 %29.82 in10.0 miESE (110°)5.8 mphMostly Cloudy
5:55 PM77.0 °F77.0 °F100 %29.81 in10.0 miESE (110°)4.6 mphMostly Cloudy
5:58 PM77.0 °F77.0 °F100 %29.78 in10.0 miSE (130°)6.9 mph0.00 inMostly Cloudy
6:08 PM77.0 °F75.2 °F94 %29.82 in10.0 miEast (100°)2.3 mphMostly Cloudy
6:58 PM77.0 °F75.0 °F94 %29.81 in10.0 miEast (80°)6.9 mphClear
7:38 PM78.8 °F75.2 °F89 %29.84 in10.0 miEast (90°)13.8 mphMostly Cloudy
7:39 PM78.8 °F75.2 °F89 %29.84 in10.0 miEast (90°)12.7 mphLight Drizzle
7:49 PM77.0 °F75.2 °F94 %29.85 in9.0 miENE (60°)8.1 mphLight Drizzle
7:52 PM75.2 °F73.4 °F94 %29.85 in10.0 miENE (60°)6.9 mphOvercast
7:58 PM75.6 °F73.6 °F94 %29.82 in10.0 miENE (70°)5.8 mph0.00 inOvercast
8:58 PM77.7 °F75.4 °F92 %29.83 in10.0 miENE (70°)15.0 mph19.6 mphScattered Clouds
9:58 PM77.7 °F75.2 °F92 %29.83 in10.0 miEast (80°)10.4 mphMostly Cloudy
10:13 PM78.8 °F75.2 °F89 %29.86 in10.0 miENE (70°)11.5 mphMostly Cloudy
10:18 PM78.8 °F75.2 °F89 %29.86 in10.0 miEast (80°)11.5 mphOvercast
10:58 PM78.3 °F73.9 °F87 %29.83 in10.0 miEast (90°)8.1 mph17.3 mphOvercast
11:58 PM77.5 °F74.1 °F89 %29.83 in10.0 miEast (100°)10.4 mphMostly Cloudy
Hourly data recorded from PGUA, located miles away from Mangilao, Guam







STORIES FROM OUR PARTNERS